| time (UTC) | temp F | wind direction | speed knots | gust knots | rain 1hr in | rain 24hr in | rain mn in | humidity % | barometer mb |
| 20260504014508 | 53 | 186 | 0.0 | 0.0 | 0.00 | 0.00 | 0.00 | 65 | 1014.0 |
| 20260504014101 | 53 | 186 | 0.0 | 0.0 | 0.00 | 0.00 | 0.00 | 64 | 1014.0 |
| 20260504013552 | 54 | 186 | 0.0 | 0.0 | 0.00 | 0.00 | 0.00 | 65 | 1014.0 |
| 20260504013049 | 54 | 186 | 0.0 | 0.0 | 0.00 | 0.00 | 0.00 | 64 | 1013.7 |
| 20260504012538 | 55 | 186 | 0.0 | 0.0 | 0.00 | 0.00 | 0.00 | 63 | 1013.5 |
| 20260504012031 | 56 | 186 | 0.0 | 0.0 | 0.00 | 0.00 | 0.00 | 61 | 1013.4 |
| 20260504011525 | 56 | 186 | 0.0 | 0.0 | 0.00 | 0.00 | 0.00 | 60 | 1013.4 |
| 20260504011018 | 57 | 186 | 0.0 | 0.0 | 0.00 | 0.00 | 0.00 | 59 | 1013.4 |
| 20260504010515 | 57 | 186 | 0.0 | 0.0 | 0.00 | 0.00 | 0.00 | 59 | 1013.5 |
| 20260504010005 | 58 | 186 | 0.0 | 0.0 | 0.00 | 0.00 | 0.00 | 58 | 1013.5 |
| 20260504005559 | 58 | 186 | 0.0 | 0.0 | 0.00 | 0.00 | 0.00 | 58 | 1013.4 |
| 20260504005053 | 59 | 186 | 0.0 | 0.0 | 0.00 | 0.00 | 0.00 | 57 | 1013.4 |
| 20260504004559 | 59 | 186 | 0.0 | 0.0 | 0.00 | 0.00 | 0.00 | 55 | 1013.4 |
| 20260504004037 | 59 | 186 | 0.0 | 1.7 | 0.00 | 0.00 | 0.00 | 56 | 1013.3 |
| 20260504003532 | 60 | 186 | 0.0 | 2.6 | 0.00 | 0.00 | 0.00 | 56 | 1013.2 |
| 20260504003023 | 60 | 186 | 0.9 | 2.6 | 0.00 | 0.00 | 0.00 | 52 | 1013.3 |
| 20260504002515 | 60 | 174 | 0.9 | 4.3 | 0.00 | 0.00 | 0.00 | 51 | 1013.1 |
| 20260504002008 | 61 | 179 | 1.7 | 4.3 | 0.00 | 0.00 | 0.00 | 51 | 1013.2 |
| 20260504001502 | 61 | 205 | 0.9 | 3.5 | 0.00 | 0.00 | 0.00 | 51 | 1013.3 |
| 20260504001100 | 61 | 194 | 0.9 | 4.3 | 0.00 | 0.00 | 0.00 | 51 | 1013.3 |
| 20260504000548 | 61 | 192 | 0.9 | 6.1 | 0.00 | 0.00 | 0.00 | 50 | 1013.2 |
| 20260504000043 | 62 | 188 | 2.6 | 5.2 | 0.00 | 0.00 | 0.00 | 50 | 1013.2 |
| 20260503235535 | 62 | 190 | 0.9 | 3.5 | 0.00 | 0.00 | 0.00 | 50 | 1013.3 |
| 20260503235029 | 62 | 188 | 0.0 | 5.2 | 0.00 | 0.00 | 0.00 | 50 | 1013.3 |
| 20260503234522 | 62 | 188 | 1.7 | 5.2 | 0.00 | 0.00 | 0.00 | 49 | 1013.3 |
| 20260503234015 | 62 | 213 | 0.9 | 5.2 | 0.00 | 0.00 | 0.00 | 49 | 1013.2 |
| 20260503233509 | 62 | 196 | 0.9 | 7.0 | 0.00 | 0.00 | 0.00 | 49 | 1013.2 |
| 20260503233002 | 62 | 196 | 3.5 | 7.0 | 0.00 | 0.00 | 0.00 | 47 | 1013.2 |
| 20260503232554 | 62 | 178 | 1.7 | 5.2 | 0.00 | 0.00 | 0.00 | 47 | 1013.3 |
| 20260503232048 | 62 | 185 | 0.9 | 4.3 | 0.00 | 0.00 | 0.00 | 47 | 1013.3 |
| 20260503231545 | 63 | 248 | 0.0 | 4.3 | 0.00 | 0.00 | 0.00 | 49 | 1013.5 |
| 20260503231031 | 63 | 248 | 1.7 | 7.0 | 0.00 | 0.00 | 0.00 | 49 | 1013.6 |
| 20260503230523 | 63 | 223 | 2.6 | 7.0 | 0.00 | 0.00 | 0.00 | 47 | 1013.7 |
| 20260503230013 | 63 | 259 | 0.9 | 4.3 | 0.00 | 0.00 | 0.00 | 47 | 1013.8 |
| 20260503225506 | 63 | 212 | 0.9 | 5.2 | 0.00 | 0.00 | 0.00 | 47 | 1013.8 |
| 20260503225059 | 63 | 264 | 0.9 | 5.2 | 0.00 | 0.00 | 0.00 | 46 | 1014.0 |
| 20260503224553 | 63 | 246 | 0.9 | 6.1 | 0.00 | 0.00 | 0.00 | 46 | 1014.2 |
| 20260503224045 | 63 | 240 | 1.7 | 6.1 | 0.00 | 0.00 | 0.00 | 45 | 1014.2 |
| 20260503223537 | 63 | 280 | 1.7 | 5.2 | 0.00 | 0.00 | 0.00 | 46 | 1014.3 |
| 20260503223029 | 63 | 202 | 1.7 | 5.2 | 0.00 | 0.00 | 0.00 | 45 | 1014.3 |
| 20260503222520 | 63 | 288 | 1.7 | 6.1 | 0.00 | 0.00 | 0.00 | 45 | 1014.2 |
| 20260503222015 | 63 | 300 | 1.7 | 8.7 | 0.00 | 0.00 | 0.00 | 44 | 1014.2 |
| 20260503221506 | 63 | 171 | 4.3 | 9.6 | 0.00 | 0.00 | 0.00 | 44 | 1014.3 |
| 20260503221105 | 64 | 254 | 0.9 | 6.1 | 0.00 | 0.00 | 0.00 | 46 | 1014.4 |
| 20260503220550 | 63 | 254 | 0.9 | 3.5 | 0.00 | 0.00 | 0.00 | 45 | 1014.7 |
| 20260503220042 | 63 | 229 | 0.9 | 6.1 | 0.00 | 0.00 | 0.00 | 43 | 1014.8 |
| 20260503215535 | 64 | 258 | 2.6 | 7.0 | 0.00 | 0.00 | 0.00 | 44 | 1014.9 |
| 20260503215028 | 63 | 165 | 2.6 | 7.0 | 0.00 | 0.00 | 0.00 | 43 | 1014.9 |
| 20260503214520 | 63 | 243 | 2.6 | 8.7 | 0.00 | 0.00 | 0.00 | 44 | 1015.1 |
| 20260503214014 | 63 | 220 | 3.5 | 8.7 | 0.00 | 0.00 | 0.00 | 43 | 1015.2 |
| 20260503213505 | 63 | 296 | 1.7 | 6.1 | 0.00 | 0.00 | 0.00 | 42 | 1015.2 |
| 20260503213103 | 63 | 243 | 1.7 | 6.1 | 0.00 | 0.00 | 0.00 | 43 | 1015.4 |
| 20260503212555 | 63 | 256 | 2.6 | 9.6 | 0.00 | 0.00 | 0.00 | 42 | 1015.0 |
| 20260503212047 | 63 | 250 | 2.6 | 9.6 | 0.00 | 0.00 | 0.00 | 42 | 1014.7 |
| 20260503211541 | 64 | 254 | 1.7 | 5.2 | 0.00 | 0.00 | 0.00 | 43 | 1014.9 |
| 20260503211029 | 64 | 145 | 1.7 | 14.8 | 0.00 | 0.00 | 0.00 | 42 | 1015.3 |
| 20260503210521 | 63 | 279 | 0.9 | 14.8 | 0.00 | 0.00 | 0.00 | 41 | 1015.3 |
| 20260503210014 | 64 | 298 | 1.7 | 9.6 | 0.00 | 0.00 | 0.00 | 42 | 1015.5 |
| 20260503205509 | 64 | 217 | 1.7 | 6.1 | 0.00 | 0.00 | 0.00 | 41 | 1015.5 |
| 20260503205001 | 64 | 197 | 2.6 | 7.0 | 0.00 | 0.00 | 0.00 | 42 | 1015.5 |
| 20260503204556 | 64 | 198 | 2.6 | 9.6 | 0.00 | 0.00 | 0.00 | 42 | 1015.5 |
| 20260503204047 | 64 | 183 | 0.9 | 9.6 | 0.00 | 0.00 | 0.00 | 42 | 1015.5 |
| 20260503203541 | 64 | 170 | 3.5 | 7.8 | 0.00 | 0.00 | 0.00 | 41 | 1015.6 |
| 20260503203032 | 64 | 161 | 0.0 | 7.0 | 0.00 | 0.00 | 0.00 | 43 | 1015.7 |
| 20260503202523 | 64 | 246 | 2.6 | 7.0 | 0.00 | 0.00 | 0.00 | 41 | 1015.9 |
| 20260503202014 | 64 | 275 | 1.7 | 5.2 | 0.00 | 0.00 | 0.00 | 41 | 1016.0 |
| 20260503201505 | 64 | 272 | 1.7 | 4.3 | 0.00 | 0.00 | 0.00 | 42 | 1016.0 |
| 20260503201058 | 64 | 275 | 0.9 | 7.8 | 0.00 | 0.00 | 0.00 | 42 | 1016.2 |
| 20260503200551 | 64 | 254 | 4.3 | 7.8 | 0.00 | 0.00 | 0.00 | 41 | 1016.3 |
| 20260503200043 | 64 | 244 | 1.7 | 8.7 | 0.00 | 0.00 | 0.00 | 40 | 1016.5 |
| 20260503195533 | 64 | 175 | 2.6 | 5.2 | 0.00 | 0.00 | 0.00 | 42 | 1016.7 |
| 20260503195024 | 64 | 235 | 1.7 | 6.1 | 0.00 | 0.00 | 0.00 | 43 | 1016.8 |
| 20260503194515 | 64 | 271 | 2.6 | 6.1 | 0.00 | 0.00 | 0.00 | 40 | 1017.1 |
| 20260503194008 | 64 | 262 | 1.7 | 5.2 | 0.00 | 0.00 | 0.00 | 41 | 1017.1 |
| 20260503193601 | 64 | 264 | 0.9 | 8.7 | 0.00 | 0.00 | 0.00 | 41 | 1017.1 |
| 20260503193056 | 63 | 147 | 2.6 | 8.7 | 0.00 | 0.00 | 0.00 | 41 | 1017.2 |
| 20260503192545 | 63 | 235 | 1.7 | 10.4 | 0.00 | 0.00 | 0.00 | 42 | 1017.2 |
| 20260503192036 | 63 | 137 | 5.2 | 10.4 | 0.00 | 0.00 | 0.00 | 41 | 1017.3 |
| 20260503191528 | 63 | 245 | 2.6 | 7.0 | 0.00 | 0.00 | 0.00 | 41 | 1017.5 |
| 20260503191023 | 63 | 203 | 0.9 | 6.1 | 0.00 | 0.00 | 0.00 | 43 | 1017.5 |
| 20260503190515 | 63 | 253 | 0.9 | 7.0 | 0.00 | 0.00 | 0.00 | 41 | 1017.5 |
| 20260503190001 | 63 | 277 | 2.6 | 7.0 | 0.00 | 0.00 | 0.00 | 43 | 1017.7 |
| 20260503185555 | 63 | 296 | 1.7 | 4.3 | 0.00 | 0.00 | 0.00 | 43 | 1017.8 |
| 20260503185047 | 63 | 181 | 1.7 | 7.0 | 0.00 | 0.00 | 0.00 | 45 | 1017.7 |
| 20260503184554 | 63 | 254 | 3.5 | 7.0 | 0.00 | 0.00 | 0.00 | 42 | 1018.0 |
| 20260503184032 | 63 | 176 | 0.9 | 6.1 | 0.00 | 0.00 | 0.00 | 44 | 1017.9 |
| 20260503183524 | 62 | 160 | 2.6 | 6.1 | 0.00 | 0.00 | 0.00 | 43 | 1018.1 |
| 20260503183014 | 62 | 199 | 1.7 | 6.1 | 0.00 | 0.00 | 0.00 | 44 | 1018.1 |
| 20260503182505 | 62 | 165 | 2.6 | 7.0 | 0.00 | 0.00 | 0.00 | 44 | 1018.3 |
| 20260503182059 | 62 | 194 | 1.7 | 8.7 | 0.00 | 0.00 | 0.00 | 45 | 1018.4 |
| 20260503181552 | 61 | 186 | 4.3 | 8.7 | 0.00 | 0.00 | 0.00 | 46 | 1018.4 |
| 20260503181042 | 61 | 41 | 1.7 | 7.0 | 0.00 | 0.00 | 0.00 | 46 | 1018.4 |
| 20260503180534 | 61 | 153 | 2.6 | 7.0 | 0.00 | 0.00 | 0.00 | 44 | 1018.5 |
| 20260503180026 | 61 | 201 | 1.7 | 7.0 | 0.00 | 0.00 | 0.00 | 45 | 1018.6 |
| 20260503175521 | 61 | 192 | 4.3 | 7.0 | 0.00 | 0.00 | 0.00 | 45 | 1018.7 |
| 20260503175009 | 60 | 259 | 3.5 | 10.4 | 0.00 | 0.00 | 0.00 | 46 | 1018.7 |
| 20260503174620 | 60 | 199 | 2.6 | 10.4 | 0.00 | 0.00 | 0.00 | 45 | 1018.8 |
| 20260503174052 | 60 | 247 | 2.6 | 8.7 | 0.00 | 0.00 | 0.00 | 45 | 1019.0 |
| 20260503173545 | 61 | 138 | 2.6 | 7.0 | 0.00 | 0.00 | 0.00 | 44 | 1019.1 |
| 20260503173041 | 61 | 149 | 1.7 | 4.3 | 0.00 | 0.00 | 0.00 | 45 | 1019.2 |
| 20260503172529 | 61 | 261 | 0.9 | 4.3 | 0.00 | 0.00 | 0.00 | 46 | 1019.3 |
| 20260503172022 | 61 | 271 | 2.6 | 4.3 | 0.00 | 0.00 | 0.00 | 45 | 1019.4 |
| 20260503171514 | 60 | 196 | 1.7 | 5.2 | 0.00 | 0.00 | 0.00 | 47 | 1019.3 |
| 20260503171009 | 60 | 259 | 1.7 | 10.4 | 0.00 | 0.00 | 0.00 | 48 | 1019.5 |
| 20260503170600 | 60 | 233 | 4.3 | 10.4 | 0.00 | 0.00 | 0.00 | 47 | 1019.5 |
| 20260503151004 | 56 | 259 | 1.7 | 3.5 | 0.00 | 0.00 | 0.00 | 60 | 1020.8 |
| 20260503150558 | 56 | 198 | 1.7 | 4.3 | 0.00 | 0.00 | 0.00 | 60 | 1020.8 |
| 20260503131027 | 43 | 170 | 1.7 | 3.5 | 0.00 | 0.00 | 0.00 | 90 | 1020.8 |
| 20260503130512 | 42 | 169 | 0.9 | 3.5 | 0.00 | 0.00 | 0.00 | 91 | 1020.8 |
| 20260503110521 | 34 | 338 | 0.0 | 0.0 | 0.00 | 0.00 | 0.00 | 94 | 1020.0 |
| 20260503081537 | 35 | 338 | 0.0 | 0.0 | 0.00 | 0.00 | 0.00 | 92 | 1019.7 |
| 20260503081007 | 35 | 338 | 0.0 | 0.0 | 0.00 | 0.00 | 0.00 | 92 | 1019.6 |
| 20260503080601 | 35 | 338 | 0.0 | 0.0 | 0.00 | 0.00 | 0.00 | 92 | 1019.5 |
| 20260503072601 | 36 | 338 | 0.0 | 0.0 | 0.00 | 0.00 | 0.00 | 91 | 1019.1 |
| 20260503072053 | 36 | 338 | 0.0 | 0.0 | 0.00 | 0.00 | 0.00 | 91 | 1019.1 |
| 20260503071546 | 36 | 338 | 0.0 | 0.0 | 0.00 | 0.00 | 0.00 | 91 | 1019.1 |
| 20260503071036 | 36 | 338 | 0.0 | 0.0 | 0.00 | 0.00 | 0.00 | 91 | 1019.1 |
| 20260503070526 | 37 | 338 | 0.0 | 0.0 | 0.00 | 0.00 | 0.00 | 91 | 1019.1 |
| 20260503055027 | 38 | 338 | 0.0 | 0.0 | 0.00 | 0.00 | 0.00 | 90 | 1019.3 |
| 20260503054530 | 38 | 338 | 0.0 | 0.0 | 0.00 | 0.00 | 0.00 | 90 | 1019.3 |
| 20260503054015 | 38 | 338 | 0.0 | 0.0 | 0.00 | 0.00 | 0.00 | 90 | 1019.2 |
| 20260503053506 | 39 | 338 | 0.0 | 0.0 | 0.00 | 0.00 | 0.00 | 90 | 1019.1 |
| 20260503053101 | 39 | 338 | 0.0 | 0.0 | 0.00 | 0.00 | 0.00 | 90 | 1019.2 |
| 20260503052552 | 39 | 338 | 0.0 | 0.0 | 0.00 | 0.00 | 0.00 | 89 | 1019.2 |
| 20260503052045 | 39 | 338 | 0.0 | 0.0 | 0.00 | 0.00 | 0.00 | 89 | 1019.3 |
| 20260503051538 | 39 | 338 | 0.0 | 0.0 | 0.00 | 0.00 | 0.00 | 89 | 1019.2 |
| 20260503051031 | 39 | 338 | 0.0 | 0.0 | 0.00 | 0.00 | 0.00 | 89 | 1019.3 |
| 20260503050524 | 39 | 338 | 0.0 | 0.0 | 0.00 | 0.00 | 0.00 | 89 | 1019.3 |
| 20260503050016 | 40 | 338 | 0.0 | 0.0 | 0.00 | 0.00 | 0.00 | 89 | 1019.2 |
| 20260503045506 | 40 | 338 | 0.0 | 0.0 | 0.00 | 0.00 | 0.00 | 90 | 1019.2 |
| 20260503045059 | 40 | 338 | 0.0 | 0.0 | 0.00 | 0.00 | 0.00 | 90 | 1019.2 |
| 20260503044554 | 40 | 338 | 0.0 | 0.9 | 0.00 | 0.00 | 0.00 | 89 | 1019.2 |
| 20260503044043 | 40 | 338 | 0.0 | 0.9 | 0.00 | 0.00 | 0.00 | 89 | 1019.1 |
| 20260503043537 | 40 | 338 | 0.0 | 0.9 | 0.00 | 0.00 | 0.00 | 89 | 1019.1 |
| 20260503043029 | 40 | 338 | 0.0 | 0.9 | 0.00 | 0.00 | 0.00 | 89 | 1019.0 |
| 20260503042523 | 40 | 338 | 0.0 | 0.0 | 0.00 | 0.00 | 0.00 | 89 | 1019.0 |
| 20260503042013 | 41 | 338 | 0.0 | 0.0 | 0.00 | 0.00 | 0.00 | 89 | 1019.0 |
| 20260503041505 | 41 | 338 | 0.0 | 0.9 | 0.00 | 0.00 | 0.00 | 88 | 1018.9 |
| 20260503041056 | 41 | 338 | 0.0 | 0.9 | 0.00 | 0.00 | 0.00 | 88 | 1018.9 |
| 20260503040547 | 41 | 338 | 0.0 | 0.0 | 0.00 | 0.00 | 0.00 | 88 | 1019.0 |
| 20260503040039 | 41 | 338 | 0.0 | 0.9 | 0.00 | 0.00 | 0.00 | 88 | 1018.9 |
| 20260503035532 | 41 | 338 | 0.0 | 0.9 | 0.00 | 0.00 | 0.00 | 88 | 1018.9 |
| 20260503035026 | 41 | 338 | 0.0 | 0.0 | 0.00 | 0.00 | 0.00 | 87 | 1018.9 |
| 20260503034519 | 42 | 338 | 0.0 | 0.0 | 0.00 | 0.00 | 0.00 | 87 | 1018.9 |
| 20260503034012 | 42 | 338 | 0.0 | 0.0 | 0.00 | 0.00 | 0.00 | 87 | 1018.8 |
| 20260503033507 | 42 | 338 | 0.0 | 0.0 | 0.00 | 0.00 | 0.00 | 87 | 1018.8 |
| 20260503033100 | 42 | 338 | 0.0 | 0.0 | 0.00 | 0.00 | 0.00 | 87 | 1018.9 |
| 20260503032554 | 42 | 338 | 0.0 | 0.0 | 0.00 | 0.00 | 0.00 | 86 | 1018.8 |
| 20260503032048 | 42 | 338 | 0.0 | 0.9 | 0.00 | 0.00 | 0.00 | 86 | 1018.7 |
| 20260503031546 | 43 | 338 | 0.0 | 0.9 | 0.00 | 0.00 | 0.00 | 86 | 1018.7 |
| 20260503031034 | 43 | 338 | 0.0 | 0.9 | 0.00 | 0.00 | 0.00 | 86 | 1018.7 |
| 20260503030528 | 43 | 338 | 0.0 | 0.0 | 0.00 | 0.00 | 0.00 | 86 | 1018.7 |
| 20260503030020 | 43 | 338 | 0.0 | 0.9 | 0.00 | 0.00 | 0.00 | 86 | 1018.6 |
| 20260503025511 | 43 | 338 | 0.0 | 0.9 | 0.00 | 0.00 | 0.00 | 84 | 1018.6 |
| 20260503025002 | 43 | 338 | 0.0 | 0.0 | 0.00 | 0.00 | 0.00 | 84 | 1018.6 |
| 20260503024556 | 43 | 338 | 0.0 | 0.0 | 0.00 | 0.00 | 0.00 | 84 | 1018.5 |
| 20260503024048 | 44 | 338 | 0.0 | 0.0 | 0.00 | 0.00 | 0.00 | 84 | 1018.5 |
| 20260503023541 | 44 | 338 | 0.0 | 0.9 | 0.00 | 0.00 | 0.00 | 83 | 1018.3 |
| 20260503023032 | 44 | 338 | 0.0 | 0.9 | 0.00 | 0.00 | 0.00 | 83 | 1018.2 |
| 20260503022525 | 44 | 338 | 0.0 | 0.0 | 0.00 | 0.00 | 0.00 | 82 | 1018.2 |
| 20260503022020 | 44 | 338 | 0.0 | 0.0 | 0.00 | 0.00 | 0.00 | 82 | 1018.2 |
| 20260503021515 | 45 | 338 | 0.0 | 0.0 | 0.00 | 0.00 | 0.00 | 82 | 1018.2 |
| 20260503021005 | 45 | 338 | 0.0 | 0.0 | 0.00 | 0.00 | 0.00 | 82 | 1018.1 |
| 20260503020600 | 45 | 338 | 0.0 | 0.0 | 0.00 | 0.00 | 0.00 | 81 | 1018.0 |
| 20260503020056 | 45 | 338 | 0.0 | 0.0 | 0.00 | 0.00 | 0.00 | 80 | 1018.0 |
| 20260503015545 | 46 | 338 | 0.0 | 0.0 | 0.00 | 0.00 | 0.00 | 80 | 1017.9 |
| 20260503015040 | 46 | 338 | 0.0 | 0.0 | 0.00 | 0.00 | 0.00 | 80 | 1017.8 |